Погода в Шолье

Россия / Удмуртская Республика     56°20′57″N   54°03′29″E
В апреле 2022 года жителям России запретили посещать сайт meteo.paraplan.net по решению Генеральной прокуратуры. Аудитория сайта уменьшилась в 10 раз. Владельцы сайта не видят смысла в поддержке погодного сервера в таких условиях. Сайт будет закрыт в октябре.
темп.,
°C
ветер,
м/с
пор.,
м/с
влажн.,
%
обл.,
%
осадки,
мм/ч
давл.,
гПа
погр.,
м
3 октября, пн
пн301:00+12ю61355100 0.3 1017572
04:00+10ю61477100 2.0 1018480
07:00+11ю51378100 0.4 1019490
10:00+12ю51264100 0.8 1020466
13:00+16ююз6114684 0.0 1020749
16:00+17ю6104497 0.0 1021821
19:00+12ю4135295 0.0 1023284
22:00+11ю4135378 0.0 1024336
4 октября, вт
вт401:00+9ю311599 0.0 1025258
04:00+8ююв3115980 0.0 1026223
07:00+7ююв3115883 0.0 1027208
10:00+12ююв51040100 0.0 1028395
13:00+14ю51033100 0.0 1028652
16:00+13ююв4937100 0.0 1028422
19:00+10ююв374586 0.0 1029145
22:00+8ююв394882 0.0 1029146
5 октября, ср
ср501:00+7ююв31046100 0.0 1029200
04:00+7ююв31046100 0.0 1029260
07:00+7ю3847100 0.0 1029172
10:00+9юв41143100 0.0 1027394
13:00+10ююв51241100 0.0 1027515
16:00+10ююв51239100 0.0 1026442
19:00+9ююв41149100 0.0 1025421
22:00+10ююв51241100 0.0 1023537
6 октября, чт
чт601:00+7ю51174100 0.4 1022687
04:00+6юв51185100 2.1 1019567
07:00+7ююв4985100 0.1 1017425
10:00+7ююв4991100 0.8 1015447
13:00+7ююв5886100 0.1 1015404
16:00+9ю3785100 0.3 1014449
19:00+8юз249496 0.8 101489
22:00+7зюз488939 1.1 1013335
7 октября, пт
пт701:00+6зюз489193 0.0 1013339
04:00+5зюз499078 0.0 1013374
07:00+5юз4892100 0.2 1012356
10:00+8зюз5979100 0.3 1012674
13:00+10зюз7962100 0.0 10111340
16:00+7юз51086100 0.4 1011767
19:00+8з5109287 0.1 1012596
22:00+8зюз51187100 0.1 1011488